Tracking 20712 objects as of 28-May-2020
HD Live streaming from Space Station
objects crossing your sky now

MIRANDA (X-4)

Track MIRANDA (X-4) now!
10-day predictions
MIRANDA (X-4) is classified as:


NORAD ID: 7213
Int'l Code: 1974-013A
Perigee: 672.7 km
Apogee: 838.9 km
Inclination: 97.8 °
Period: 99.8 minutes
Semi major axis: 7126 km
RCS: 0.7069 m2 (medium)
Launch date: March 9, 1974
Source: United Kingdom (UK)
Launch site: AIR FORCE WESTERN TEST RANGE (AFWTR)
aabbcc
Your satellite tracking list
Your tracking list is empty




NASA's NSSDC Master Catalog

Two Line Element Set (TLE):
1  7213U 74013A   20148.91224924  .00000053  00000-0  26613-4 0  9996
2  7213  97.7926 137.9032 0116628 282.3907  76.4252 14.42982732420964
Source of the keplerian elements: AFSPC